TimeMST,TemperatureF,Dew PointF,Humidity,Sea Level PressureIn,VisibilityMPH,Wind Direction,Wind SpeedMPH,Gust SpeedMPH,PrecipitationIn,Events,Conditions,WindDirDegrees,DateUTC
12:54 AM,24.1,12.0,60,30.43,10.0,Calm,Calm,-,N/A,,Clear,0,2013-01-17 07:54:00
1:54 AM,27.0,15.1,61,30.43,10.0,SE,8.1,-,N/A,,Clear,140,2013-01-17 08:54:00
2:54 AM,26.1,15.1,63,30.45,10.0,Calm,Calm,-,N/A,,Clear,0,2013-01-17 09:54:00
3:54 AM,19.0,10.0,68,30.47,10.0,Calm,Calm,-,N/A,,Clear,0,2013-01-17 10:54:00
4:54 AM,18.0,10.9,74,30.51,10.0,Calm,Calm,-,N/A,,Clear,0,2013-01-17 11:54:00
5:54 AM,17.1,10.0,74,30.54,10.0,NNE,4.6,-,N/A,,Clear,30,2013-01-17 12:54:00
6:54 AM,17.1,10.0,74,30.56,10.0,NE,4.6,-,N/A,,Clear,40,2013-01-17 13:54:00
7:54 AM,19.0,10.0,68,30.57,10.0,NNE,8.1,-,N/A,,Clear,30,2013-01-17 14:54:00
8:54 AM,35.1,18.0,50,30.55,10.0,East,3.5,-,N/A,,Clear,100,2013-01-17 15:54:00
9:54 AM,37.9,17.1,43,30.53,10.0,South,3.5,-,N/A,,Clear,180,2013-01-17 16:54:00
10:54 AM,41.0,18.0,40,30.54,10.0,South,8.1,-,N/A,,Clear,190,2013-01-17 17:54:00
11:54 AM,42.1,17.1,37,30.48,10.0,SSW,4.6,-,N/A,,Clear,200,2013-01-17 18:54:00
12:54 PM,43.0,17.1,35,30.44,10.0,SSW,5.8,-,N/A,,Clear,210,2013-01-17 19:54:00
1:54 PM,44.1,14.0,30,30.40,10.0,ESE,5.8,-,N/A,,Clear,120,2013-01-17 20:54:00
2:54 PM,45.0,14.0,29,30.39,10.0,SE,6.9,-,N/A,,Clear,140,2013-01-17 21:54:00
3:54 PM,44.1,15.1,31,30.43,10.0,South,10.4,-,N/A,,Clear,170,2013-01-17 22:54:00
4:54 PM,37.0,12.9,37,30.47,10.0,SSE,8.1,-,N/A,,Clear,160,2013-01-17 23:54:00
5:54 PM,34.0,12.9,42,30.49,10.0,SE,4.6,-,N/A,,Clear,140,2013-01-18 00:54:00
6:54 PM,34.0,12.9,42,30.49,10.0,Calm,Calm,-,N/A,,Clear,0,2013-01-18 01:54:00
7:54 PM,25.0,10.9,55,30.51,10.0,NE,3.5,-,N/A,,Clear,50,2013-01-18 02:54:00
8:54 PM,23.0,10.0,58,30.43,10.0,North,4.6,-,N/A,,Clear,10,2013-01-18 03:54:00
9:54 PM,23.0,10.9,60,30.40,10.0,North,6.9,-,N/A,,Clear,360,2013-01-18 04:54:00
10:54 PM,19.0,10.0,68,30.38,10.0,NE,8.1,-,N/A,,Clear,40,2013-01-18 05:54:00
11:54 PM,19.0,10.0,68,30.35,10.0,NNE,8.1,-,N/A,,Clear,20,2013-01-18 06:54:00